Location: Houhaj�rvi
(61.2833°N, 23.0000°E)
Time: 15:42:47
(UTC+00:00)

Cosmos 2082 - Pass Details

Date: 27 February 2020
Orbit: 832 x 857 km, 71.0° (Epoch: 24 March)

Event Time Altitude Azimuth Distance (km) Brightness Sun altitude
Rises 18:17:33 0° 318° (NW) 3,432 7.9 -18.8°
Reaches altitude 10° 18:20:00 10° 317° (NW) 2,496 7.0 -19.1°
Maximum altitude 18:25:45 79° 233° (SW) 879 3.8 -19.7°
Enters shadow 18:28:47 29° 150° (SSE) 1,521 4.6 -20.1°
